Temp
6 6 6 6 6 5 5 5 5 5 4 4 4 4 5 5 5 5 5 5 5 5 5 5 4 4 4 4 4 4 4 4
6 6 6 5 5 5 5 5 4 4 4 3 3 4 5 5 5 5 5 5 5 5 5 5 4 4 4 3 4 4 4 4
6 6 5 5 5 5 5 4 4 4 4 3 3 4 5 4 5 5 5 5 5 5 5 5 4 4 4 4 4 4 4 4
6 6 5 5 5 4 4 4 4 4 4 4 4 4 5 5 5 5 5 5 5 5 4 4 4 4 4 4 4 4 4 4
6 5 5 5 5 5 4 4 4 4 4 4 4 4 4 5 5 5 5 5 4 4 4 4 4 4 4 4 3 3 4 3
5 5 5 5 5 4 4 4 3 4 4 4 5 5 5 5 5 5 4 4 4 4 4 4 4 3 3 3 3 3 3 3
6 5 5 5 4 4 3 3 3 3 4 5 5 5 5 5 5 5 4 5 5 4 4 4 3 3 3 3 3 3 3 3
6 5 5 5 4 4 3 3 3 4 4 4 4 5 5 5 5 4 5 4 4 4 3 3 3 3 3 3 3 3 3 3
6 5 5 4 3 3 4 4 4 4 5 5 5 5 4 4 4 5 4 4 4 4 3 3 3 3 3 2 2 2 2 2
5 5 5 4 4 4 4 4 4 4 4 4 4 4 4 4 4 4 4 3 3 2 2 2 2 2 2 2 2 2 2 2
5 5 5 4 4 4 4 4 4 4 4 4 4 4 4 4 4 3 3 2 2 2 2 2 2 2 1 1 1 1 1 1
5 5 4 4 3 3 3 4 4 4 4 4 4 3 4 4 3 3 2 2 2 1 2 2 1 1 1 1 1 1 1 0
5 5 4 3 3 3 3 3 4 3 3 3 3 3 3 3 3 2 2 1 1 1 1 1 1 1 0 0 -0 -0 0 -0
5 5 4 3 3 3 3 3 3 3 3 3 3 3 3 2 2 2 2 1 1 1 1 1 0 0 -0 -0 -0 -1 -1 -1
5 5 4 3 3 3 3 3 2 2 2 2 2 2 2 2 2 2 2 1 1 0 0 -0 -0 -0 -0 -1 -1 -1 -1 -1
5 5 4 3 3 3 3 2 2 2 2 2 2 2 1 2 2 1 1 1 1 0 -0 -0 -1 -1 -1 -1 -2 -2 -2 -2
5 4 4 3 3 3 3 2 2 2 1 1 1 1 1 1 1 1 1 1 0 -0 -0 -1 -1 -1 -2 -2 -2 -2 -2 -2
5 4 4 4 3 3 3 2 2 2 1 1 1 0 0 1 1 1 1 0 0 -0 -1 -1 -1 -2 -2 -2 -2 -3 -3 -3
5 4 4 3 3 3 2 2 2 1 1 1 0 0 0 0 1 1 0 -0 -0 -1 -1 -1 -2 -2 -2 -2 -3 -3 -3 -4
5 4 4 3 3 3 2 2 2 1 1 0 0 -0 -0 -0 0 0 -0 -1 -1 -1 -2 -2 -2 -2 -3 -3 -3 -3 -4 -4
Height
3194 3195 3195 3195 3196 3195 3194 3193 3191 3190 3189 3188 3188 3188 3188 3188 3187 3187 3186 3185 3183 3181 3179 3177 3176 3175 3174 3173 3172 3171 3171 3170
3194 3195 3195 3194 3193 3192 3192 3192 3190 3190 3187 3184 3184 3186 3187 3186 3188 3186 3183 3182 3180 3178 3175 3174 3173 3172 3170 3169 3169 3169 3168 3166
3195 3194 3194 3193 3192 3191 3191 3190 3189 3188 3186 3181 3183 3186 3186 3186 3185 3183 3182 3180 3178 3176 3173 3172 3170 3168 3166 3165 3165 3164 3163 3162
3193 3193 3192 3191 3191 3189 3189 3188 3187 3188 3186 3184 3185 3186 3186 3185 3184 3182 3180 3179 3176 3174 3171 3169 3168 3165 3163 3163 3163 3161 3160 3159
3192 3192 3191 3191 3190 3188 3187 3186 3186 3187 3187 3187 3186 3186 3185 3185 3183 3181 3178 3177 3175 3171 3169 3167 3165 3162 3160 3160 3158 3157 3157 3157
3191 3191 3191 3190 3188 3186 3185 3186 3186 3187 3187 3187 3186 3186 3185 3183 3181 3179 3176 3174 3172 3169 3166 3164 3162 3160 3158 3156 3154 3154 3154 3153
3190 3190 3189 3187 3185 3184 3184 3184 3184 3186 3185 3185 3185 3185 3182 3180 3178 3176 3174 3172 3169 3166 3164 3162 3160 3157 3155 3153 3152 3151 3150 3150
3189 3189 3187 3185 3184 3183 3184 3184 3186 3186 3186 3185 3184 3183 3181 3178 3176 3173 3171 3169 3166 3162 3161 3159 3157 3156 3154 3152 3150 3149 3148 3147
3188 3187 3186 3185 3184 3183 3184 3186 3185 3185 3184 3184 3183 3181 3179 3177 3174 3172 3170 3168 3165 3162 3160 3158 3156 3154 3153 3151 3149 3146 3145 3144
3186 3185 3185 3184 3185 3183 3184 3185 3185 3185 3184 3182 3181 3180 3178 3175 3173 3170 3168 3166 3163 3160 3158 3156 3154 3151 3150 3149 3147 3144 3142 3140
3186 3185 3184 3184 3184 3183 3182 3184 3184 3184 3182 3180 3179 3177 3174 3172 3170 3168 3167 3164 3161 3158 3155 3154 3152 3150 3148 3147 3146 3144 3141 3139
3184 3184 3184 3184 3183 3182 3181 3181 3181 3181 3181 3179 3178 3175 3172 3170 3168 3166 3165 3163 3160 3157 3154 3152 3151 3149 3146 3144 3143 3141 3139 3137
3183 3182 3183 3183 3183 3182 3181 3180 3179 3180 3179 3178 3177 3175 3171 3169 3167 3165 3163 3161 3158 3156 3152 3151 3149 3147 3146 3143 3141 3139 3137 3135
3181 3181 3180 3181 3181 3181 3180 3179 3178 3178 3178 3176 3175 3173 3171 3168 3166 3164 3162 3160 3158 3156 3152 3147 3146 3144 3143 3141 3139 3138 3135 3132
3178 3178 3178 3178 3179 3179 3179 3179 3178 3178 3176 3175 3172 3172 3168 3166 3164 3162 3160 3157 3155 3153 3151 3149 3145 3142 3139 3138 3134 3133 3132 3130
3175 3176 3176 3177 3177 3177 3177 3177 3177 3176 3175 3174 3171 3169 3166 3165 3163 3159 3156 3153 3151 3150 3148 3146 3144 3141 3139 3136 3133 3131 3128 3127
3172 3172 3173 3174 3175 3175 3176 3176 3175 3174 3174 3172 3169 3167 3164 3163 3160 3157 3154 3151 3148 3146 3144 3142 3140 3138 3136 3134 3132 3129 3127 3125
3167 3169 3170 3171 3173 3174 3174 3173 3172 3172 3171 3169 3167 3165 3162 3160 3157 3155 3152 3148 3145 3143 3141 3138 3136 3134 3132 3129 3127 3125 3123 3121
3163 3166 3167 3168 3169 3170 3171 3170 3169 3169 3169 3167 3165 3163 3160 3157 3155 3152 3149 3146 3143 3140 3137 3134 3132 3129 3127 3124 3122 3119 3117 3115
3159 3162 3163 3165 3165 3166 3167 3166 3166 3166 3165 3164 3162 3160 3157 3155 3153 3149 3145 3142 3139 3136 3133 3130 3128 3125 3122 3119 3117 3114 3111 3108
Wind_Speed
4 2 3 3 14 13 9 10 9 11 11 14 12 10 8 5 6 10 8 11 14 16 16 16 17 16 15 14 15 16 17 18
2 2 6 7 6 8 8 9 13 10 14 14 14 11 10 7 11 14 14 17 15 16 17 17 16 16 17 17 17 18 19 19
1 6 2 4 6 8 11 14 15 8 13 7 9 9 12 10 15 15 16 16 15 16 16 16 16 18 18 19 19 20 21 20
1 2 2 4 6 9 10 9 6 5 5 4 4 4 7 13 15 14 15 15 15 16 16 16 16 17 19 19 18 19 19 19
6 4 4 5 9 11 9 6 4 6 4 3 5 9 12 13 13 14 14 14 14 14 15 16 17 18 19 19 19 19 19 18
3 4 7 10 12 11 9 7 6 6 7 7 6 7 9 12 13 14 14 13 14 17 18 18 17 18 17 17 18 17 17 17
1 3 8 12 10 6 6 8 6 8 8 5 7 9 11 13 14 13 14 15 15 16 16 16 14 15 16 16 18 18 18 16
5 7 11 12 4 1 1 3 1 6 6 7 10 11 13 15 14 15 16 16 15 14 13 12 12 12 14 17 17 17 18 18
7 7 9 6 1 2 2 3 3 4 6 9 12 13 13 14 15 15 13 12 11 10 10 10 11 12 13 15 17 19 19 17
6 7 8 5 1 3 2 2 4 6 8 10 11 13 14 14 12 11 10 9 9 10 10 10 12 13 15 15 16 17 19 19
6 7 5 3 3 1 1 4 7 9 9 10 10 12 12 12 12 12 11 10 10 11 13 13 13 16 17 16 16 17 18 18
5 7 5 3 4 3 4 7 8 8 8 10 12 12 12 13 13 12 12 11 11 12 14 14 14 14 15 15 16 16 17 19
7 7 5 4 6 6 5 4 4 7 8 9 11 12 12 13 13 13 13 13 13 13 15 15 14 14 14 15 16 17 17 18
8 7 6 6 5 4 4 3 3 6 8 10 12 14 14 15 15 16 15 14 13 13 14 16 16 16 15 16 16 18 18 19
10 9 8 6 3 3 3 2 4 6 10 12 14 17 19 19 18 17 17 16 14 13 12 12 14 16 17 17 18 19 20 20
12 10 9 6 3 3 3 3 4 9 10 12 15 18 20 21 20 20 19 18 17 15 14 13 13 13 14 15 16 18 20 20
14 12 10 8 6 5 4 4 5 7 10 13 17 19 19 21 24 21 20 19 19 18 16 15 14 15 15 14 15 16 17 18
17 14 11 11 8 8 6 4 4 8 12 15 18 20 19 21 23 22 20 20 20 20 19 18 18 17 18 18 18 18 17 17
18 16 13 13 11 11 11 8 7 10 13 16 19 21 20 20 23 24 22 20 20 20 21 21 21 20 20 19 19 20 20 19
20 17 16 14 14 14 14 13 11 13 15 16 19 21 19 19 22 24 23 22 22 22 22 22 22 22 23 22 22 22 23 23
Wind_Direction
209 175 146 312 301 315 309 314 319 315 304 274 263 245 276 306 314 306 296 310 310 314 310 304 305 307 300 291 290 288 289 294
186 238 310 326 324 306 296 316 325 308 310 277 248 242 268 278 298 314 312 308 314 318 318 313 307 300 297 293 289 288 289 289
167 295 268 292 318 303 299 300 313 304 325 4 210 242 262 281 303 312 310 312 323 318 311 307 307 303 297 292 294 295 293 292
291 231 275 302 318 318 309 308 286 267 331 22 199 262 250 290 300 307 309 318 321 319 316 314 312 305 300 302 303 298 295 294
303 215 263 303 311 321 300 291 270 259 251 265 258 272 285 291 303 308 314 322 323 320 316 313 308 304 305 307 305 303 300 299
233 241 290 308 319 314 300 271 264 249 271 285 284 293 307 310 307 312 322 325 325 318 314 312 310 309 311 310 307 305 306 310
295 296 320 323 318 308 298 280 256 239 282 306 315 317 316 312 319 322 323 325 318 310 306 307 309 308 312 312 313 318 318 317
335 334 344 330 326 347 345 57 306 280 304 322 319 323 320 319 321 326 325 324 323 317 317 320 321 318 316 314 317 318 316 316
334 345 345 356 5 109 154 241 290 301 309 313 320 321 320 319 323 320 322 323 317 310 313 318 316 315 317 317 321 320 319 316
338 341 345 8 340 111 83 317 306 311 312 316 323 326 320 319 325 334 339 340 336 327 328 336 329 327 328 325 322 320 319 321
321 325 337 339 281 330 31 310 309 309 311 318 325 323 322 330 340 347 352 356 350 337 337 343 341 333 329 328 328 324 321 320
299 310 322 337 269 290 308 292 297 305 316 321 326 331 337 342 350 353 359 358 352 343 339 339 335 331 328 328 328 327 324 322
284 303 302 274 276 277 289 283 307 316 320 338 342 342 352 354 357 359 1 2 359 349 338 336 333 329 329 328 329 327 324 321
266 283 275 273 283 287 273 281 341 346 348 1 8 4 5 4 1 360 358 355 352 344 337 333 333 329 327 327 327 325 322 319
246 261 268 267 273 272 264 322 4 354 352 360 10 10 12 6 358 355 352 351 349 344 339 332 325 324 324 324 324 320 317 317
242 254 264 244 250 244 240 289 336 339 339 345 358 358 3 0 357 356 350 347 344 340 336 332 325 317 315 313 309 309 311 313
235 245 252 234 232 233 266 295 347 347 348 353 1 359 357 352 352 350 346 343 340 336 332 328 325 320 316 309 304 301 301 303
233 242 247 236 230 238 253 277 341 344 342 344 351 349 344 345 345 345 344 342 338 331 328 326 325 322 318 315 311 308 305 303
235 240 248 242 238 245 256 271 303 313 321 324 333 338 338 338 342 341 340 337 333 329 327 325 323 320 317 315 313 311 309 308
235 240 248 248 245 252 261 274 288 296 301 310 329 332 334 332 337 336 335 335 334 330 325 321 319 317 316 316 316 315 314 313